Powrót do katalogu

FENGYUN 1C DEB

AktywnySSO
NORAD 41829·DEBRIS·🇨🇳 China

Wystrzelony May 10, 1999 z Taiyuan Satellite Launch Center

Loading…

Następne Przeloty (najbliższe 24 godziny)

TLE

ŚwieżeSource: Space-Track

Epoka: Sep 13, 2026, 03:12 UTC

1 41829U 99025EYG 26256.13333490  .00001972  00000-0  81895-3 0  9999
2 41829  98.7287 329.5159 0056297 141.4530 219.0691 14.26742547512185

Śledź FENGYUN 1C DEB w czasie rzeczywistym z AllMySat

Download on the App Store